sat.trackr.live / text

‹ back to catalog

STARLINK-35978

NORAD 66601 · 2025-270P

PAYLOAD ACTIVE UNKNOWN

§ Identity

Operator
Country
US
Launch date
2025-11-22
Launch site
AFETR
Launch vehicle
Mass (kg)
RCS (m²)

Purposes: comms

External: N2YO · Heavens-Above · Gunter

§ Orbital elements

Epoch: 2026-05-24T23:26:10.469184Z

Period
94.27 min
Inclination
42.9976°
Eccentricity
0.0001369
Mean motion
15.27587108 rev/d
Perigee alt
482.1 km
Apogee alt
484.0 km
Semi-major
6,861.2 km
B*
7.0131e-4
RAAN
345.2990°
Arg perigee
264.1318°
Mean anomaly
95.9378°
Rev number
2,921

§ Raw data

STARLINK-359781 66601U 25270P   26144.97651006  .00019091  00000+0  70131-3 0  99902 66601  42.9976 345.2990 0001369 264.1318  95.9378 15.27587108 29213

JSON: /api/v1/satellites/66601 · /tle

For live sub-satellite position, see the globe view (requires WebGL).

§ Visibility from observer

Set your observer location to see the next 7 days of passes ≥ 10°. The values pass through the URL so the page stays shareable.

No JS? Fill the form by hand. The geolocation button needs JavaScript.